SCP
0 0 0 0 0 0 0 0 0 0 0 0 0 0 0 0 0 0 0 0 0 0 0 0 0 0 0 0 0 0 0 0 0 0 0 0 0 0 0 0 0 0 0
0 0 0 0 0 0 0 0 0 0 0 0 0 0 0 0 0 0 0 0 0 0 0 0 0 0 0 0 0 0 0 0 0 0 0 0 0 0 0 0 0 0 0
0 0 0 0 0 0 0 0 0 0 0 0 0 0 0 0 0 0 0 0 0 0 0 0 0 0 0 0 0 0 0 0 0 0 0 0 0 0 0 0 0 0 0
0 0 0 0 0 0 0 0 0 0 0 0 0 0 0 0 0 0 0 0 0 0 0 0 0 0 0 0 0 0 0 0 0 0 0 0 0 0 0 0 0 0 0
0 0 0 0 0 0 0 0 0 0 0 0 0 0 0 0 0 0 0 0 0 0 0 0 0 0 0 0 0 0 0 0 0 0 0 0 0 0 0 0 0 0 0
0 0 0 0 0 0 0 0 0 0 0 0 0 0 0 0 0 0 0 0 0 0 0 0 0 0 0 0 0 0 0 0 0 0 0 0 0 0 0 0 0 0 0
0 0 0 0 0 0 0 0 0 0 0 0 0 0 0 0 0 0 0 0 0 0 0 0 0 0 0 0 0 0 0 0 0 0 0 0 0 0 0 0 0 0 0
0 0 0 0 0 0 0 0 0 0 0 0 0 0 0 0 0 0 0 0 0 0 0 0 0 0 0 0 0 0 0 0 0 0 0 0 0 0 0 0 0 0 0
0 0 0 0 0 0 0 0 0 0 0 0 0 0 0 0 0 0 0 0 0 0 0 0 0 0 0 0 0 0 0 -0 0 0 0 0 0 0 0 0 0 0 0
0 0 0 0 0 0 0 0 0 0 0 0 0 0 0 0 0 0 0 0 0 0 0 0 0 0 0 0 0 0 0 0 0 0 0 0 0 0 0 0 0 0 0
0 0 0 0 0 0 0 0 0 0 0 0 0 0 0 0 0 0 0 0 0 0 0 0 0 0 0 0 0 0 0 0 0 0 0 0 0 0 0 0 0 0 0
0 0 0 0 0 0 0 0 0 0 0 0 0 0 0 0 0 0 0 0 0 0 0 0 0 0 0 0 0 0 0 0 0 0 0 0 0 0 0 0 0 0 0
1 1 0 0 0 0 0 0 0 0 0 0 0 0 0 0 0 0 0 0 0 0 0 0 0 0 0 0 0 0 0 0 0 0 0 0 0 0 0 0 0 0 0
1 1 1 1 0 0 0 0 0 0 0 0 0 0 0 0 0 0 0 0 0 0 0 0 0 0 0 0 0 0 0 0 0 0 0 0 0 0 0 0 0 0 0
1 1 1 1 1 1 0 0 0 0 0 0 0 0 0 0 0 0 0 0 0 0 0 0 0 0 0 0 0 0 0 0 0 0 0 0 0 0 0 0 0 0 0
1 1 1 1 1 1 0 0 0 0 0 0 0 0 0 0 0 0 0 0 0 0 0 0 0 0 0 0 0 0 0 0 0 0 0 0 0 0 0 0 0 0 0
1 1 1 1 1 1 0 0 0 0 0 0 0 0 0 0 0 0 0 0 0 0 0 0 0 0 0 0 0 0 0 0 0 0 0 0 0 0 0 0 0 0 0
1 1 1 1 1 0 0 0 0 0 0 0 0 0 0 0 0 0 0 0 0 0 0 0 0 0 0 0 0 0 0 0 0 0 0 0 0 0 0 0 0 0 0
1 1 1 1 0 0 0 0 0 0 0 0 0 0 0 0 0 0 0 0 0 0 0 0 0 0 0 0 0 0 0 0 0 0 0 0 0 0 0 0 0 0 0
1 1 1 1 0 0 0 0 0 0 0 0 0 0 0 0 0 0 0 0 0 0 0 0 0 0 0 0 0 0 0 0 0 0 0 0 0 0 0 0 0 0 0
0 0 0 0 0 0 0 0 0 0 0 0 0 0 0 0 0 0 0 0 0 0 0 0 0 0 0 0 0 0 0 0 0 0 0 0 0 0 0 0 0 0 0
0 0 0 0 0 0 0 0 0 0 0 0 0 0 0 0 0 0 0 0 0 0 0 0 0 0 0 0 0 0 0 0 0 0 0 0 0 0 0 0 0 0 0
0 0 0 0 0 0 0 0 0 0 0 0 0 0 0 0 0 0 0 0 0 0 0 0 -0 0 0 0 0 0 0 0 0 0 0 0 0 0 0 0 0 0 0
0 0 0 0 0 0 0 0 0 0 0 0 0 0 0 0 0 0 0 0 0 0 0 0 0 0 0 0 0 0 0 0 0 0 0 0 0 0 0 0 0 0 0
0 0 0 0 0 0 0 0 0 0 0 0 0 0 0 0 0 0 0 0 0 0 0 0 0 0 0 0 0 0 0 0 0 0 0 0 0 0 0 0 0 0 0
0 0 0 0 0 0 0 0 0 0 0 -0 -0 0 0 0 0 0 0 0 0 0 0 0 0 0 0 0 0 0 0 0 0 0 0 0 0 0 0 0 0 0 0
Wind_Speed
14 16 17 14 14 14 14 14 14 15 15 14 13 13 12 11 10 10 9 9 9 9 9 9 9 9 8 8 7 7 6 6 7 8 8 9 11 12 12 12 11 11 13
17 18 17 14 14 14 14 14 14 14 14 14 13 12 12 11 10 9 9 9 9 9 8 9 9 8 8 8 7 7 6 7 7 8 9 11 12 12 11 9 8 11 13
18 18 18 14 14 14 14 14 14 14 14 13 12 12 11 10 10 9 9 9 9 8 8 8 8 8 8 8 7 7 7 7 7 8 8 9 12 11 10 10 13 13 12
19 18 17 16 14 14 13 13 13 13 13 12 12 11 10 9 9 8 8 9 8 8 8 7 7 7 7 7 7 7 7 7 6 6 6 9 11 12 11 12 13 12 12
18 16 17 17 15 14 13 13 13 13 12 12 11 10 9 9 8 8 7 8 8 7 7 7 7 7 6 6 6 6 6 6 3 5 7 8 10 11 11 12 12 11 11
18 16 18 15 14 14 13 13 13 13 12 11 11 10 9 8 7 7 7 6 6 6 6 6 6 5 5 5 5 5 5 4 7 5 7 7 10 11 11 12 12 11 11
17 16 18 15 14 13 13 13 13 12 11 10 10 9 8 7 6 6 5 5 5 5 5 5 5 4 4 5 5 4 4 2 2 6 6 7 10 11 10 10 11 11 11
16 15 17 15 14 13 13 13 12 11 11 10 9 8 6 5 5 4 4 4 4 4 4 4 4 4 3 3 4 4 2 5 4 5 5 8 10 8 10 10 10 10 10
15 14 15 16 14 13 12 12 11 10 9 8 8 6 5 4 3 3 3 3 3 3 3 3 3 3 2 2 3 3 1 4 2 4 5 6 9 7 9 10 10 10 10
12 13 13 13 13 13 12 11 10 10 9 8 7 6 5 5 4 3 5 4 3 3 3 3 3 3 2 2 2 2 2 6 4 5 4 8 9 8 9 9 9 9 9
11 11 12 12 11 10 10 11 11 10 8 8 7 6 5 4 4 5 2 2 2 3 4 4 4 4 4 5 3 2 5 5 3 2 3 11 9 8 8 9 9 9 9
13 12 10 10 11 10 7 8 6 7 7 4 3 4 3 1 1 1 5 2 2 3 4 4 4 5 8 6 7 7 5 4 2 2 6 10 8 8 8 9 9 9 9
14 12 11 10 9 8 6 6 4 3 4 4 3 2 1 1 1 2 1 3 4 6 5 5 6 5 5 2 2 4 3 3 2 2 6 9 7 8 9 10 10 10 10
13 12 10 10 8 7 5 5 4 4 3 3 4 1 1 0 1 1 1 1 2 2 2 2 2 3 3 3 4 3 4 4 2 2 5 7 7 8 9 10 11 11 10
11 11 10 9 8 7 5 4 5 3 3 4 2 3 1 1 1 1 1 2 3 2 3 3 3 3 3 3 4 4 4 3 3 4 3 7 6 8 9 10 11 11 11
10 10 9 9 8 8 6 5 4 4 3 3 3 4 2 2 2 1 1 1 1 2 1 2 2 2 2 2 3 2 3 3 2 4 3 6 7 7 9 10 11 12 12
9 9 10 9 9 8 7 6 5 4 4 4 4 4 3 3 2 2 1 1 1 1 0 1 1 2 2 3 2 2 2 2 2 3 4 3 5 8 9 9 10 11 13
9 10 10 8 9 8 6 5 4 4 5 4 4 4 4 4 3 2 1 1 1 1 1 0 1 1 1 2 1 2 1 2 3 4 5 5 4 4 8 10 10 10 12
9 9 9 8 9 8 7 5 5 5 4 4 3 3 4 4 3 1 2 2 1 1 1 1 1 2 1 1 2 2 2 1 2 3 4 5 4 4 4 8 10 10 12
8 8 9 9 9 8 7 6 5 5 4 3 3 4 3 3 3 2 2 2 1 1 1 1 1 1 2 2 3 0 1 1 2 1 3 3 3 5 6 5 6 8 11
8 8 10 10 10 8 6 7 6 6 4 4 3 4 3 3 3 2 2 2 1 2 2 1 1 1 1 2 3 3 3 2 0 0 1 2 1 2 3 4 5 5 6
10 10 11 11 10 9 7 5 4 4 4 4 3 4 3 3 2 2 3 1 2 2 2 1 2 3 1 1 4 3 4 5 3 1 1 1 1 1 2 3 3 4 5
11 11 10 11 11 10 9 6 6 5 4 5 5 5 4 4 3 3 2 2 1 1 3 1 1 2 1 0 2 4 4 1 4 4 2 2 1 1 0 0 1 1 4
12 12 11 11 11 10 10 8 9 6 5 5 4 5 5 5 4 3 2 2 1 1 2 0 3 1 3 1 1 1 3 5 4 2 4 3 2 1 3 2 1 1 1
13 12 12 12 11 10 10 9 8 7 4 4 5 5 6 6 5 5 4 2 2 1 2 2 2 2 1 2 1 1 1 2 4 5 2 2 2 1 1 1 1 1 1
13 13 12 12 12 11 11 10 10 8 6 5 6 6 7 6 6 7 6 4 4 2 2 1 1 1 2 2 2 1 2 2 2 3 4 4 3 2 1 1 2 1 1
Wind_Direction
156 147 141 149 145 139 134 129 127 127 128 128 126 125 124 123 121 116 111 105 100 95 92 90 87 84 82 81 80 79 84 92 101 108 115 119 118 119 124 132 138 119 119
149 145 145 150 148 142 136 131 128 127 127 127 125 124 122 121 118 116 113 106 100 96 93 90 88 84 81 77 76 77 85 94 105 115 123 122 119 123 129 132 118 116 127
149 145 151 152 150 145 140 135 132 130 128 127 126 124 121 119 119 117 113 108 102 97 93 90 89 85 80 74 73 77 87 96 104 124 148 129 119 119 121 115 112 124 127
151 150 154 150 153 149 144 139 135 133 131 130 129 127 125 123 120 116 112 110 105 101 98 94 91 84 78 71 69 77 92 98 110 176 153 120 124 122 126 123 124 128 127
151 151 144 154 156 152 147 143 140 138 136 136 134 132 130 127 124 119 114 111 108 105 102 98 92 85 75 66 65 78 98 111 162 215 104 112 113 125 129 127 128 129 128
151 155 145 158 156 153 150 146 145 142 141 141 139 137 136 135 132 127 122 117 115 111 107 103 97 88 75 63 59 77 106 147 220 118 109 120 117 131 133 132 133 132 131
156 157 148 157 155 154 151 150 147 146 146 144 143 140 139 139 138 134 130 129 126 122 118 111 109 99 82 64 58 79 112 218 236 106 118 116 114 133 137 136 136 136 135
157 155 143 153 155 154 152 151 150 149 147 146 144 141 139 137 135 136 140 141 141 142 137 131 127 118 95 73 61 80 112 269 148 114 120 114 116 141 141 141 144 143 142
158 154 152 160 159 155 152 151 150 148 146 145 142 141 142 143 145 145 154 164 164 163 164 163 153 142 129 100 73 77 115 292 247 123 128 115 128 149 149 150 154 152 149
159 157 156 164 159 164 158 151 147 145 144 141 141 143 146 158 168 173 201 180 200 202 197 195 189 174 159 149 118 104 187 252 214 151 136 120 141 162 163 161 161 158 155
161 162 164 158 160 166 161 150 155 149 145 157 158 152 193 202 186 186 162 121 212 219 218 211 202 185 189 175 167 174 228 243 180 137 110 118 158 177 175 169 169 169 168
165 166 164 162 163 168 159 150 161 164 152 175 141 164 198 169 267 275 116 166 221 221 213 204 203 203 225 198 171 199 228 236 241 174 121 135 171 187 186 178 176 180 181
165 165 165 162 165 164 154 156 155 143 141 149 124 129 107 244 230 238 213 186 208 216 222 188 210 226 223 219 221 216 235 241 238 227 131 149 182 198 196 189 187 190 190
166 166 165 159 161 163 155 148 153 152 152 141 124 157 134 268 300 335 287 288 245 233 231 239 223 230 236 217 224 227 220 239 238 242 126 154 192 204 203 197 196 197 198
166 164 160 159 158 153 148 159 144 140 139 118 105 83 5 324 344 342 329 307 282 270 227 226 232 216 214 209 222 210 224 234 246 248 160 163 198 210 208 202 200 202 203
167 163 157 159 157 153 152 146 134 131 122 111 95 73 26 16 18 329 268 306 300 289 309 269 240 211 216 203 219 210 227 225 219 244 234 175 189 204 206 203 203 205 206
166 164 159 159 157 155 150 146 138 138 130 108 93 84 56 40 34 338 356 286 358 341 220 228 222 221 209 200 200 211 227 246 235 241 255 240 197 191 198 201 204 206 207
164 164 162 161 154 149 141 145 139 133 118 106 100 93 72 57 35 338 351 28 354 288 241 174 252 223 224 240 212 235 225 225 240 242 244 237 240 224 190 191 200 206 209
161 157 155 151 150 146 142 142 129 121 114 115 106 91 85 69 48 15 31 35 282 290 306 282 61 300 262 287 239 211 250 252 254 245 255 250 237 241 228 180 198 208 213
155 153 150 144 145 145 143 140 140 138 139 130 111 96 94 86 57 17 86 45 329 54 51 39 44 1 317 301 289 290 269 261 256 283 261 242 232 232 230 221 208 205 211
162 163 158 154 150 156 158 163 163 160 158 151 136 121 117 90 81 20 49 81 351 52 16 353 307 198 270 311 258 218 186 191 123 206 304 300 234 240 239 224 231 224 201
171 171 163 160 162 172 166 167 165 153 169 155 144 138 143 127 116 104 48 81 69 87 76 24 332 310 22 320 293 257 205 172 177 88 98 74 3 255 212 210 231 225 247
173 171 170 167 171 178 168 169 157 158 178 171 173 170 167 160 140 85 93 56 65 336 82 31 341 313 319 108 333 309 292 238 153 144 100 85 63 8 32 115 221 230 238
176 171 171 172 177 177 177 183 182 189 189 178 185 167 172 184 181 164 145 109 48 56 93 163 61 337 304 277 141 336 343 354 304 173 172 146 109 46 30 345 81 114 226
175 173 174 176 180 180 188 189 198 206 196 178 185 169 194 187 198 194 186 174 181 165 80 45 70 348 329 329 324 251 218 228 270 289 234 187 189 161 77 330 1 30 45
178 178 178 179 185 186 192 197 209 210 205 196 200 188 202 193 198 196 199 201 209 193 168 182 176 161 15 5 322 308 283 281 277 279 274 253 252 214 238 282 260 261 292